Wind_Speed
33 34 35 34 33 33 33 33 32 29 27 24 21 20 19 18 17 16 15 15 14 14 13 13 13 13 13 12 12 11 11 11 10 10 9 9 9 9 9 9 10 10 11 11
34 35 36 36 34 33 33 34 33 31 29 26 24 23 21 20 18 18 17 17 16 15 16 16 15 15 15 15 15 14 14 13 13 13 12 12 12 11 11 12 12 13 13 14
35 35 37 38 36 35 34 34 33 33 31 28 26 25 24 22 21 20 19 19 17 17 17 17 18 18 17 17 18 18 17 16 16 16 15 15 15 14 14 15 15 15 16 16
36 35 38 37 36 36 35 34 33 33 32 30 28 27 26 24 23 22 21 21 20 19 19 19 20 20 21 21 21 21 20 19 19 19 19 18 17 17 17 17 17 17 17 17
38 37 37 37 36 35 35 35 34 33 32 30 29 29 28 26 24 23 23 22 21 21 20 20 21 21 22 22 23 23 22 21 21 21 20 20 19 19 19 19 19 19 20 20
40 40 39 36 35 35 35 36 35 34 33 32 31 31 29 26 25 24 25 24 23 23 23 23 22 23 24 24 24 24 23 23 24 24 23 22 21 21 21 21 21 21 21 22
40 40 38 36 34 34 36 35 34 34 33 32 32 31 29 27 26 26 25 24 25 25 25 25 25 25 25 25 25 26 25 25 25 24 24 23 22 23 24 24 24 23 23 23
40 40 38 35 33 33 33 33 32 32 31 31 30 30 30 29 27 27 27 26 26 26 26 26 27 27 27 27 27 27 26 26 25 25 25 25 25 25 26 26 25 25 25 25
41 39 36 34 33 32 32 32 32 32 32 31 31 31 31 30 29 28 28 28 28 28 28 28 28 28 28 27 27 28 27 27 26 26 26 26 27 27 27 26 26 27 27 27
39 37 35 34 33 33 33 33 32 32 32 32 32 31 31 31 31 30 30 30 29 29 29 29 29 29 29 28 28 28 28 28 27 27 27 27 27 27 26 27 27 28 28 28
38 36 35 34 34 33 34 34 33 32 32 32 32 33 33 33 32 31 32 31 31 31 31 31 31 30 30 29 29 29 29 28 28 28 28 28 27 28 28 28 28 28 28 28
36 35 36 35 35 34 34 35 34 33 33 32 32 33 33 33 33 33 33 33 33 33 33 33 32 30 30 30 29 29 29 29 29 29 30 30 29 28 28 29 28 29 28 29
35 36 35 36 35 34 34 34 34 34 32 31 31 32 33 34 34 33 33 33 33 33 33 32 31 30 30 30 30 31 30 30 30 31 30 30 30 30 29 30 30 30 29 29
34 34 34 34 33 32 33 33 32 32 31 31 31 31 32 33 33 32 32 33 33 33 32 31 30 30 31 31 31 32 32 31 31 32 31 31 31 32 32 31 31 30 30 30
32 32 33 33 32 32 31 32 32 31 31 30 30 29 30 31 31 31 31 32 32 32 31 30 30 30 31 31 31 32 32 32 32 32 32 33 33 33 33 33 32 32 32 31
31 32 32 32 31 31 30 30 31 31 31 30 29 29 29 29 30 29 30 31 31 30 30 29 30 30 31 31 31 31 31 31 32 33 34 34 34 34 34 34 33 33 33 32
30 30 30 29 29 29 29 29 29 29 30 29 29 30 29 29 29 29 29 29 29 29 28 28 29 30 31 31 31 31 31 32 32 32 33 33 34 34 34 34 33 34 33 34
29 29 29 29 29 28 28 28 28 28 28 29 30 30 30 29 28 28 28 28 26 26 27 28 28 28 29 29 29 30 31 31 32 32 33 33 33 34 34 34 33 34 34 35
27 27 27 27 28 29 28 27 28 28 28 29 29 29 29 28 29 29 30 28 26 26 27 27 27 28 28 28 30 31 31 32 33 33 33 34 34 35 34 34 34 34 35 35
26 26 25 25 25 26 27 27 28 27 27 27 28 27 27 27 27 26 26 26 26 26 27 27 27 28 28 29 30 30 30 31 32 33 33 34 35 34 34 33 34 34 34 34
25 25 25 24 24 24 25 25 25 25 25 26 27 26 25 25 26 26 26 26 26 26 27 28 27 28 28 29 29 29 30 31 32 32 33 33 32 32 32 33 33 33 34 34
25 24 23 23 23 22 23 23 23 23 24 25 26 25 25 25 25 24 24 25 25 26 26 27 26 27 28 28 29 29 30 31 32 32 31 31 30 30 31 31 31 32 33 34
22 23 22 22 22 21 21 22 22 23 23 24 25 24 25 24 24 24 23 24 25 25 26 26 26 27 27 27 28 29 29 30 30 30 30 29 29 30 30 30 31 32 32 33
19 20 20 20 20 20 20 20 22 22 22 22 24 24 24 23 23 23 24 24 24 24 25 25 26 26 26 26 27 27 28 28 28 28 28 29 29 29 30 30 31 32 32 32
16 16 17 17 17 17 18 18 19 21 21 21 21 21 22 21 22 22 22 22 22 23 24 24 24 25 25 26 26 27 27 27 27 27 27 28 28 28 29 30 30 30 31 31
15 16 16 16 16 16 17 17 17 17 18 19 20 20 20 20 20 20 20 21 21 22 22 22 23 24 25 26 26 26 26 27 27 27 27 27 28 28 29 29 29 28 29 29
14 14 15 16 15 15 15 16 16 16 16 17 18 19 20 19 19 19 20 21 22 22 22 23 24 24 25 25 25 26 26 26 26 27 27 27 28 28 28 28 28 27 27 27
Wind_Direction
233 232 233 235 238 241 243 247 251 254 255 255 256 257 258 258 257 257 261 262 265 263 268 269 270 272 272 274 276 278 280 283 288 292 292 291 294 295 296 299 304 306 307 307
236 235 235 235 237 240 243 246 249 252 253 255 256 254 254 255 258 259 260 260 262 260 261 264 266 267 267 272 275 274 274 276 280 283 285 287 287 289 291 293 296 298 300 300
238 237 237 237 237 240 243 245 248 251 253 255 255 254 253 253 254 258 263 260 260 260 261 264 264 263 268 271 273 272 270 272 275 275 276 278 280 282 285 287 288 291 293 296
239 239 240 240 239 241 243 244 246 248 250 251 252 251 251 253 254 255 258 259 259 260 262 265 265 262 265 268 272 273 271 273 276 274 273 273 277 281 283 285 286 290 292 293
240 241 243 242 242 243 244 245 245 246 248 248 249 251 252 253 254 254 255 256 258 260 264 265 265 264 265 267 271 273 273 272 272 273 275 275 276 279 282 285 288 292 293 294
241 243 244 243 244 246 246 246 245 247 247 247 249 251 252 253 253 254 259 256 256 259 262 264 265 267 268 268 269 271 271 271 271 273 275 277 276 277 279 282 285 288 290 291
242 245 246 246 246 245 245 244 244 246 246 246 248 250 249 249 250 252 257 258 258 259 261 262 263 266 269 267 268 269 271 275 273 274 275 276 279 281 280 281 283 285 287 289
241 244 246 245 245 243 244 243 243 244 245 246 247 249 249 248 249 251 253 256 258 260 262 263 264 265 267 267 268 270 272 275 276 276 276 278 278 280 281 282 283 285 288 288
241 243 245 244 245 244 242 242 242 243 243 244 246 249 249 248 250 249 249 253 256 259 261 264 265 266 267 268 268 268 271 274 275 274 275 277 278 279 279 280 282 284 286 286
240 241 242 243 243 243 241 241 242 242 244 245 246 248 251 249 250 249 250 254 256 257 260 263 264 265 267 268 269 271 272 273 274 274 275 276 276 277 278 279 283 284 286 285
239 240 241 242 242 242 241 241 240 242 244 245 247 250 252 252 250 249 252 254 255 257 260 262 263 265 266 266 268 270 273 274 272 273 275 277 277 278 280 281 283 285 285 285
239 241 241 241 240 241 241 241 239 240 241 244 247 249 252 251 252 253 253 253 256 259 261 262 262 264 265 267 267 268 270 272 272 273 275 277 279 278 279 282 283 286 286 287
240 241 242 240 240 241 241 241 241 242 242 243 246 248 249 249 251 253 253 254 257 260 261 260 259 261 264 266 267 268 269 270 271 273 274 275 275 276 278 281 283 285 286 287
240 241 240 239 238 240 242 240 240 242 243 244 246 249 250 250 251 252 253 255 257 259 258 258 258 260 263 266 268 269 270 270 271 272 273 273 274 275 276 278 281 283 284 285
239 240 239 237 237 239 241 239 239 240 242 243 246 248 250 249 249 250 251 253 256 257 257 257 259 261 263 265 267 268 269 269 269 271 272 272 274 276 277 277 279 282 282 284
237 236 235 234 235 237 239 239 238 239 240 243 245 249 250 250 249 250 252 253 255 258 258 258 260 261 263 263 266 267 267 268 269 270 272 273 275 277 279 279 280 280 281 283
234 234 233 231 233 235 237 238 238 239 241 243 244 247 249 249 248 251 254 256 257 259 259 259 259 261 264 264 265 267 267 269 272 274 275 276 277 280 280 279 279 280 281 283
234 234 232 232 232 234 235 236 237 238 240 241 244 246 247 248 248 250 253 255 258 261 262 263 263 263 265 266 268 268 269 271 273 275 276 277 279 280 280 281 283 282 281 282
234 234 233 233 235 236 235 235 236 237 240 241 242 244 244 247 250 251 254 256 258 260 262 263 265 265 266 267 269 270 270 271 273 275 276 277 278 279 281 282 282 283 283 282
233 233 231 230 231 232 232 233 234 236 239 240 241 244 246 248 249 252 255 257 258 259 262 263 265 266 267 268 269 270 272 273 275 276 277 279 280 280 281 281 283 283 282 282
231 230 229 230 232 231 230 230 234 236 239 242 243 245 247 250 252 254 256 255 255 257 259 263 266 267 267 269 271 273 275 275 276 277 278 279 282 283 281 282 283 283 282 282
228 228 229 230 231 231 231 233 236 237 239 242 245 248 252 256 255 255 257 256 256 259 261 264 267 269 270 271 273 275 276 276 277 279 279 281 283 283 283 284 285 284 283 284
225 227 228 229 231 232 233 236 237 239 241 244 248 253 255 257 256 254 255 258 260 262 264 266 268 271 272 274 275 277 278 278 278 280 281 282 282 282 283 285 286 286 286 286
224 227 229 231 234 235 237 239 241 243 245 248 251 254 254 255 254 254 257 258 261 264 267 270 272 273 273 275 277 279 280 281 281 281 282 282 283 283 284 286 288 287 287 287
221 224 228 231 234 234 237 241 245 245 246 249 252 252 253 254 254 254 259 263 265 268 270 272 273 275 276 277 278 280 282 284 283 282 282 282 283 284 285 286 287 287 287 288
219 225 230 231 235 239 242 246 250 249 249 250 251 253 255 254 253 255 261 265 269 271 273 275 276 278 280 280 279 280 281 282 282 282 282 283 283 285 286 288 289 289 290 291
224 229 232 234 238 240 242 246 250 249 248 252 256 256 254 251 253 258 263 267 271 274 276 279 280 281 282 282 281 281 282 283 283 283 284 285 284 284 286 288 290 291 291 291
Height
5845 5849 5852 5856 5859 5862 5865 5867 5870 5874 5876 5880 5882 5884 5886 5887 5888 5888 5889 5890 5891 5891 5891 5892 5892 5892 5892 5892 5891 5891 5891 5890 5890 5889 5888 5887 5886 5886 5885 5885 5884 5883 5882 5881
5836 5841 5844 5848 5852 5855 5858 5861 5864 5867 5871 5874 5876 5878 5881 5882 5883 5884 5885 5886 5886 5887 5887 5888 5888 5888 5888 5888 5887 5887 5887 5887 5887 5886 5886 5885 5884 5883 5883 5882 5881 5880 5879 5878
5828 5832 5835 5839 5845 5848 5851 5854 5858 5860 5865 5868 5870 5872 5875 5877 5878 5879 5880 5880 5881 5882 5883 5883 5883 5883 5883 5883 5884 5883 5883 5883 5883 5883 5882 5882 5881 5880 5879 5878 5877 5876 5875 5874
5820 5824 5826 5834 5837 5840 5844 5847 5850 5853 5857 5861 5864 5866 5868 5870 5872 5874 5875 5875 5876 5876 5877 5878 5877 5878 5878 5878 5878 5878 5878 5879 5879 5878 5878 5877 5876 5875 5874 5873 5873 5872 5870 5869
5812 5815 5819 5824 5829 5833 5836 5839 5842 5846 5849 5853 5856 5859 5861 5864 5866 5867 5869 5870 5870 5871 5871 5871 5872 5872 5872 5872 5872 5872 5873 5873 5873 5872 5872 5872 5872 5871 5870 5869 5868 5867 5866 5864
5803 5806 5810 5817 5822 5824 5828 5829 5835 5838 5841 5845 5848 5851 5855 5857 5859 5860 5861 5863 5864 5864 5865 5865 5866 5866 5866 5866 5866 5866 5867 5867 5867 5866 5866 5866 5866 5865 5865 5864 5863 5861 5860 5859
5794 5797 5802 5808 5812 5815 5819 5823 5827 5830 5833 5837 5840 5844 5847 5849 5851 5853 5854 5855 5857 5858 5858 5859 5859 5859 5860 5860 5860 5860 5860 5861 5860 5860 5860 5860 5860 5859 5859 5858 5856 5855 5854 5853
5785 5789 5795 5800 5802 5806 5810 5815 5818 5822 5826 5829 5833 5836 5838 5841 5843 5845 5846 5848 5849 5850 5851 5852 5852 5853 5853 5853 5854 5853 5854 5854 5854 5854 5854 5853 5853 5853 5852 5851 5850 5849 5848 5847
5778 5783 5787 5790 5794 5798 5802 5806 5810 5814 5818 5821 5825 5828 5830 5832 5835 5837 5839 5840 5841 5843 5844 5844 5845 5846 5846 5846 5846 5846 5847 5847 5847 5847 5846 5846 5846 5845 5844 5843 5843 5842 5841 5839
5769 5773 5777 5781 5785 5789 5793 5797 5801 5805 5809 5813 5816 5819 5822 5824 5826 5828 5831 5832 5833 5834 5836 5836 5837 5838 5838 5838 5838 5839 5839 5839 5839 5839 5839 5839 5838 5837 5836 5836 5835 5834 5833 5831
5760 5764 5768 5772 5777 5781 5785 5788 5792 5796 5800 5804 5807 5810 5813 5815 5818 5820 5822 5823 5825 5826 5827 5828 5829 5829 5830 5830 5831 5831 5831 5832 5832 5832 5832 5831 5830 5830 5829 5828 5827 5826 5825 5823
5752 5756 5760 5764 5768 5772 5776 5780 5784 5788 5791 5795 5799 5801 5803 5806 5809 5811 5812 5814 5815 5817 5818 5819 5819 5820 5821 5822 5822 5823 5824 5824 5824 5824 5824 5824 5823 5823 5822 5821 5819 5818 5816 5815
5743 5747 5751 5756 5760 5763 5767 5771 5775 5779 5783 5786 5790 5792 5795 5797 5799 5801 5803 5804 5806 5807 5808 5809 5810 5811 5812 5812 5813 5814 5815 5815 5816 5816 5816 5815 5815 5815 5814 5813 5811 5810 5808 5807
5734 5738 5742 5747 5751 5755 5759 5763 5767 5771 5774 5778 5781 5783 5786 5788 5790 5791 5793 5795 5796 5797 5798 5799 5801 5802 5803 5804 5804 5805 5805 5806 5807 5807 5806 5806 5806 5805 5805 5804 5803 5801 5800 5798
5726 5730 5734 5739 5743 5747 5750 5754 5759 5763 5766 5769 5772 5775 5777 5779 5781 5782 5784 5785 5786 5788 5789 5790 5791 5793 5793 5794 5795 5795 5796 5796 5797 5797 5797 5797 5796 5795 5794 5794 5793 5792 5790 5789
5718 5721 5726 5731 5735 5739 5743 5746 5751 5755 5758 5761 5764 5766 5768 5770 5772 5774 5775 5776 5777 5778 5779 5780 5782 5783 5784 5784 5785 5785 5786 5787 5787 5787 5787 5786 5786 5785 5785 5783 5783 5782 5780 5779
5710 5714 5718 5723 5727 5731 5735 5738 5743 5747 5750 5753 5755 5758 5760 5762 5764 5765 5766 5767 5768 5769 5770 5772 5773 5774 5774 5775 5775 5776 5776 5777 5777 5777 5777 5776 5776 5775 5773 5772 5772 5771 5770 5769
5703 5707 5711 5716 5720 5724 5727 5731 5735 5738 5742 5745 5747 5750 5752 5754 5756 5757 5758 5759 5760 5761 5762 5763 5764 5764 5765 5765 5766 5766 5767 5767 5767 5767 5766 5766 5765 5764 5763 5762 5762 5761 5760 5759
5697 5700 5704 5708 5713 5716 5720 5724 5728 5731 5734 5737 5739 5742 5744 5746 5748 5749 5751 5752 5753 5754 5755 5755 5755 5755 5756 5756 5757 5756 5757 5757 5757 5757 5756 5755 5755 5754 5753 5752 5751 5750 5749 5748
5692 5695 5699 5702 5706 5710 5714 5717 5721 5724 5727 5730 5732 5734 5736 5739 5740 5741 5743 5745 5746 5746 5746 5747 5747 5747 5748 5748 5747 5747 5747 5747 5747 5746 5746 5745 5744 5743 5742 5741 5740 5739 5738 5737
5687 5691 5694 5697 5701 5704 5708 5711 5715 5718 5721 5723 5726 5728 5730 5732 5733 5734 5736 5737 5738 5738 5738 5739 5739 5739 5739 5739 5738 5738 5738 5738 5737 5736 5736 5735 5733 5732 5731 5730 5729 5728 5727 5726
5683 5686 5689 5693 5697 5700 5703 5706 5709 5712 5715 5717 5720 5722 5723 5724 5725 5727 5728 5729 5730 5730 5731 5731 5731 5731 5731 5730 5730 5730 5729 5728 5728 5727 5726 5725 5723 5722 5721 5720 5719 5718 5716 5715
5678 5682 5685 5689 5692 5695 5698 5701 5704 5706 5709 5711 5713 5715 5717 5718 5718 5719 5721 5722 5722 5723 5723 5723 5723 5723 5723 5722 5722 5721 5720 5719 5718 5717 5716 5715 5714 5713 5712 5711 5709 5708 5706 5705
5675 5678 5682 5685 5688 5691 5694 5696 5699 5701 5703 5705 5707 5709 5709 5710 5712 5713 5714 5714 5715 5715 5716 5716 5715 5715 5714 5714 5713 5712 5711 5710 5709 5708 5707 5706 5705 5704 5702 5701 5699 5697 5696 5694
5672 5675 5678 5681 5684 5687 5689 5691 5693 5696 5697 5699 5700 5701 5702 5703 5705 5706 5707 5707 5708 5708 5709 5708 5708 5707 5706 5705 5704 5703 5702 5701 5700 5699 5698 5697 5696 5695 5693 5691 5690 5688 5686 5684
5669 5672 5675 5678 5681 5683 5685 5687 5689 5690 5692 5693 5694 5695 5696 5697 5698 5700 5701 5701 5702 5702 5701 5701 5700 5699 5699 5698 5696 5695 5694 5693 5692 5691 5690 5688 5687 5686 5684 5682 5680 5678 5677 5675
5667 5670 5673 5675 5677 5679 5680 5682 5684 5685 5686 5688 5690 5690 5691 5692 5693 5694 5695 5695 5695 5695 5695 5694 5693 5692 5691 5690 5689 5688 5687 5686 5684 5683 5682 5680 5679 5677 5675 5673 5672 5670 5668 5665